contact:dominique.lefevre@mio.osupytheas.fr, maurice.libes@osupytheas.fr, didier.mallarino@osupytheas.fr
Project:EMSO http://www.emso-fr.org/EMSO-France
Depth: 2436.0 m
Title:EMSO Ligure Ouest : Data MII capteur MICROCAT
DateTime_Computer,Latitude,Longitude,Temperature,Conductivity,Pressure,DateTime_Instrument
DateTime_Computer,Latitude,Longitude,degC,S m-1,dbar,DateTime_Instrument
2022-11-01T00:01:10Z,42.805,6.029,13.3014,4.60066,2470.67,2022-11-01T02:03:07Z
2022-11-01T00:04:13Z,42.805,6.029,13.3012,4.60061,2470.693,2022-11-01T02:06:10Z
2022-11-01T00:07:16Z,42.805,6.029,13.3011,4.60062,2470.684,2022-11-01T02:09:13Z
2022-11-01T00:10:19Z,42.805,6.029,13.3010,4.60062,2470.707,2022-11-01T02:12:16Z
2022-11-01T00:13:22Z,42.805,6.029,13.3014,4.60061,2470.67,2022-11-01T02:15:19Z
2022-11-01T00:16:25Z,42.805,6.029,13.3011,4.60067,2470.693,2022-11-01T02:18:22Z
2022-11-01T00:19:28Z,42.805,6.029,13.3011,4.60062,2470.67,2022-11-01T02:21:25Z
2022-11-01T00:22:31Z,42.805,6.029,13.3013,4.60063,2470.684,2022-11-01T02:24:28Z
2022-11-01T00:25:34Z,42.805,6.029,13.3015,4.60062,2470.693,2022-11-01T02:27:31Z
2022-11-01T00:28:37Z,42.805,6.029,13.3009,4.60065,2470.707,2022-11-01T02:30:34Z
2022-11-01T00:31:41Z,42.805,6.029,13.3015,4.60065,2470.693,2022-11-01T02:33:37Z
2022-11-01T00:34:44Z,42.805,6.029,13.3014,4.60064,2470.693,2022-11-01T02:36:40Z
2022-11-01T00:37:47Z,42.805,6.029,13.3011,4.60062,2470.707,2022-11-01T02:39:44Z
2022-11-01T00:40:50Z,42.805,6.029,13.3011,4.60061,2470.656,2022-11-01T02:42:47Z
2022-11-01T00:43:53Z,42.805,6.029,13.3014,4.60072,2470.646,2022-11-01T02:45:50Z
2022-11-01T00:46:56Z,42.805,6.029,13.3014,4.60067,2470.67,2022-11-01T02:48:53Z
2022-11-01T00:49:59Z,42.805,6.029,13.3014,4.60064,2470.67,2022-11-01T02:51:56Z
2022-11-01T00:53:02Z,42.805,6.029,13.3013,4.60062,2470.679,2022-11-01T02:54:59Z
2022-11-01T00:56:05Z,42.805,6.029,13.3014,4.60061,2470.67,2022-11-01T02:58:02Z
2022-11-01T00:59:08Z,42.805,6.029,13.3009,4.60061,2470.684,2022-11-01T03:01:05Z
2022-11-01T01:02:11Z,42.805,6.029,13.3011,4.60061,2470.67,2022-11-01T03:04:08Z
2022-11-01T01:05:14Z,42.805,6.029,13.3011,4.60063,2470.684,2022-11-01T03:07:11Z
2022-11-01T01:08:17Z,42.805,6.029,13.3012,4.60065,2470.684,2022-11-01T03:10:14Z
2022-11-01T01:11:20Z,42.805,6.029,13.3014,4.60063,2470.707,2022-11-01T03:13:17Z
2022-11-01T01:14:23Z,42.805,6.029,13.3009,4.60062,2470.67,2022-11-01T03:16:20Z
2022-11-01T01:17:27Z,42.805,6.029,13.3014,4.60064,2470.646,2022-11-01T03:19:23Z
2022-11-01T01:20:30Z,42.805,6.029,13.3012,4.60062,2470.661,2022-11-01T03:22:27Z
2022-11-01T01:23:33Z,42.805,6.029,13.3013,4.60059,2470.67,2022-11-01T03:25:30Z
2022-11-01T01:26:36Z,42.805,6.029,13.3011,4.60062,2470.693,2022-11-01T03:28:33Z
2022-11-01T01:29:39Z,42.805,6.029,13.3011,4.60062,2470.684,2022-11-01T03:31:36Z
2022-11-01T01:32:42Z,42.805,6.029,13.3013,4.60066,2470.67,2022-11-01T03:34:39Z
2022-11-01T01:35:45Z,42.805,6.029,13.3011,4.60067,2470.684,2022-11-01T03:37:42Z
2022-11-01T01:38:48Z,42.805,6.029,13.3014,4.60062,2470.661,2022-11-01T03:40:45Z
2022-11-01T01:41:51Z,42.805,6.029,13.3008,4.60059,2470.67,2022-11-01T03:43:48Z
2022-11-01T01:44:54Z,42.805,6.029,13.3011,4.60059,2470.67,2022-11-01T03:46:51Z
2022-11-01T01:47:57Z,42.805,6.029,13.3012,4.60059,2470.646,2022-11-01T03:49:54Z
2022-11-01T01:51:00Z,42.805,6.029,13.3014,4.60062,2470.693,2022-11-01T03:52:57Z
2022-11-01T01:54:03Z,42.805,6.029,13.3013,4.60062,2470.624,2022-11-01T03:56:00Z
2022-11-01T01:57:06Z,42.805,6.029,13.3014,4.60064,2470.646,2022-11-01T03:59:03Z
2022-11-01T02:00:10Z,42.805,6.029,13.3014,4.60061,2470.624,2022-11-01T04:02:06Z
2022-11-01T02:03:13Z,42.805,6.029,13.3013,4.60067,2470.684,2022-11-01T04:05:10Z
2022-11-01T02:06:16Z,42.805,6.029,13.3011,4.60063,2470.646,2022-11-01T04:08:13Z
2022-11-01T02:09:19Z,42.805,6.029,13.3009,4.60064,2470.693,2022-11-01T04:11:16Z
2022-11-01T02:12:22Z,42.805,6.029,13.3010,4.60062,2470.67,2022-11-01T04:14:19Z
2022-11-01T02:15:25Z,42.805,6.029,13.3014,4.60073,2470.707,2022-11-01T04:17:22Z
2022-11-01T02:18:28Z,42.805,6.029,13.3011,4.60064,2470.646,2022-11-01T04:20:25Z
2022-11-01T02:21:31Z,42.805,6.029,13.3014,4.60069,2470.646,2022-11-01T04:23:28Z
2022-11-01T02:24:34Z,42.805,6.029,13.3014,4.60071,2470.684,2022-11-01T04:26:31Z
2022-11-01T02:27:37Z,42.805,6.029,13.3011,4.60069,2470.646,2022-11-01T04:29:34Z
2022-11-01T02:30:40Z,42.805,6.029,13.3014,4.60066,2470.67,2022-11-01T04:32:37Z
2022-11-01T02:33:43Z,42.805,6.029,13.3012,4.60068,2470.646,2022-11-01T04:35:40Z
2022-11-01T02:36:46Z,42.805,6.029,13.3013,4.60069,2470.656,2022-11-01T04:38:43Z
2022-11-01T02:39:50Z,42.805,6.029,13.3011,4.60067,2470.646,2022-11-01T04:41:46Z
2022-11-01T02:42:53Z,42.805,6.029,13.3013,4.60064,2470.67,2022-11-01T04:44:50Z
2022-11-01T02:45:56Z,42.805,6.029,13.3015,4.60072,2470.661,2022-11-01T04:47:53Z
2022-11-01T02:48:59Z,42.805,6.029,13.3011,4.60068,2470.646,2022-11-01T04:50:56Z
2022-11-01T02:52:02Z,42.805,6.029,13.3011,4.60064,2470.67,2022-11-01T04:53:59Z
2022-11-01T02:55:05Z,42.805,6.029,13.3009,4.60064,2470.646,2022-11-01T04:57:02Z
2022-11-01T02:58:08Z,42.805,6.029,13.3011,4.60068,2470.646,2022-11-01T05:00:05Z
2022-11-01T03:01:11Z,42.805,6.029,13.3011,4.60074,2470.624,2022-11-01T05:03:08Z
2022-11-01T03:04:14Z,42.805,6.029,13.3015,4.60072,2470.661,2022-11-01T05:06:11Z
2022-11-01T03:07:17Z,42.805,6.029,13.3014,4.60085,2470.67,2022-11-01T05:09:14Z
2022-11-01T03:10:20Z,42.805,6.029,13.3014,4.60079,2470.67,2022-11-01T05:12:17Z
2022-11-01T03:13:23Z,42.805,6.029,13.3011,4.60079,2470.624,2022-11-01T05:15:20Z
2022-11-01T03:16:26Z,42.805,6.029,13.3014,4.60074,2470.646,2022-11-01T05:18:23Z
2022-11-01T03:19:29Z,42.805,6.029,13.3014,4.60086,2470.646,2022-11-01T05:21:26Z
2022-11-01T03:22:33Z,42.805,6.029,13.3016,4.60094,2470.646,2022-11-01T05:24:29Z
2022-11-01T03:25:36Z,42.805,6.029,13.3016,4.60094,2470.646,2022-11-01T05:27:33Z
2022-11-01T03:28:39Z,42.805,6.029,13.3012,4.60095,2470.67,2022-11-01T05:30:36Z
2022-11-01T03:31:42Z,42.805,6.029,13.3010,4.60085,2470.624,2022-11-01T05:33:39Z
2022-11-01T03:34:45Z,42.805,6.029,13.3014,4.60077,2470.624,2022-11-01T05:36:42Z
2022-11-01T03:37:48Z,42.805,6.029,13.3014,4.60074,2470.661,2022-11-01T05:39:45Z
2022-11-01T03:40:51Z,42.805,6.029,13.3011,4.60072,2470.661,2022-11-01T05:42:48Z
2022-11-01T03:43:54Z,42.805,6.029,13.3013,4.60069,2470.67,2022-11-01T05:45:51Z
2022-11-01T03:46:57Z,42.805,6.029,13.3011,4.60076,2470.684,2022-11-01T05:48:54Z
2022-11-01T03:50:00Z,42.805,6.029,13.3011,4.60089,2470.624,2022-11-01T05:51:57Z
2022-11-01T03:53:03Z,42.805,6.029,13.3014,4.60087,2470.67,2022-11-01T05:55:00Z
2022-11-01T03:56:06Z,42.805,6.029,13.3015,4.60086,2470.633,2022-11-01T05:58:03Z
2022-11-01T03:59:09Z,42.805,6.029,13.3050,4.60095,2470.624,2022-11-01T06:01:06Z
2022-11-01T04:02:12Z,42.805,6.029,13.3055,4.60090,2470.624,2022-11-01T06:04:09Z
2022-11-01T04:05:16Z,42.805,6.029,13.3044,4.60138,2470.684,2022-11-01T06:07:12Z
2022-11-01T04:08:19Z,42.805,6.029,13.3058,4.60096,2470.646,2022-11-01T06:10:16Z
2022-11-01T04:11:22Z,42.805,6.029,13.3058,4.60096,2470.646,2022-11-01T06:13:19Z
2022-11-01T04:14:25Z,42.805,6.029,13.3054,4.60097,2470.637,2022-11-01T06:16:22Z
2022-11-01T04:17:28Z,42.805,6.029,13.3053,4.60094,2470.637,2022-11-01T06:19:25Z
2022-11-01T04:20:31Z,42.805,6.029,13.3072,4.60089,2470.637,2022-11-01T06:22:28Z
2022-11-01T04:23:34Z,42.805,6.029,13.3061,4.60100,2470.661,2022-11-01T06:25:31Z
2022-11-01T04:26:37Z,42.805,6.029,13.3052,4.60103,2470.661,2022-11-01T06:28:34Z
2022-11-01T04:29:40Z,42.805,6.029,13.3063,4.60112,2470.624,2022-11-01T06:31:37Z
2022-11-01T04:32:43Z,42.805,6.029,13.3070,4.60090,2470.624,2022-11-01T06:34:40Z
2022-11-01T04:35:46Z,42.805,6.029,13.3093,4.60103,2470.661,2022-11-01T06:37:43Z
2022-11-01T04:38:49Z,42.805,6.029,13.3033,4.60098,2470.637,2022-11-01T06:40:46Z
2022-11-01T04:41:52Z,42.805,6.029,13.3046,4.60098,2470.624,2022-11-01T06:43:49Z
2022-11-01T04:44:56Z,42.805,6.029,13.3114,4.60127,2470.624,2022-11-01T06:46:52Z
2022-11-01T04:47:59Z,42.805,6.029,13.3116,4.60127,2470.637,2022-11-01T06:49:55Z
2022-11-01T04:51:02Z,42.805,6.029,13.3084,4.60102,2470.624,2022-11-01T06:52:59Z
2022-11-01T04:54:05Z,42.805,6.029,13.3077,4.60119,2470.637,2022-11-01T06:56:02Z
2022-11-01T04:57:08Z,42.805,6.029,13.3077,4.60109,2470.637,2022-11-01T06:59:05Z
2022-11-01T05:00:11Z,42.805,6.029,13.3032,4.60102,2470.614,2022-11-01T07:02:08Z
2022-11-01T05:03:14Z,42.805,6.029,13.3052,4.60105,2470.661,2022-11-01T07:05:11Z
2022-11-01T05:06:17Z,42.805,6.029,13.3056,4.60102,2470.624,2022-11-01T07:08:14Z
2022-11-01T05:09:20Z,42.805,6.029,13.3041,4.60119,2470.674,2022-11-01T07:11:17Z
2022-11-01T05:12:23Z,42.805,6.029,13.3027,4.60132,2470.624,2022-11-01T07:14:20Z
2022-11-01T05:15:26Z,42.805,6.029,13.3045,4.60113,2470.684,2022-11-01T07:17:23Z
2022-11-01T05:18:29Z,42.805,6.029,13.3061,4.60115,2470.637,2022-11-01T07:20:26Z
2022-11-01T05:21:32Z,42.805,6.029,13.3132,4.60129,2470.637,2022-11-01T07:23:29Z
2022-11-01T05:24:35Z,42.805,6.029,13.3115,4.60136,2470.6,2022-11-01T07:26:32Z
2022-11-01T05:27:39Z,42.805,6.029,13.3072,4.60112,2470.646,2022-11-01T07:29:35Z
2022-11-01T05:30:42Z,42.805,6.029,13.3056,4.60107,2470.661,2022-11-01T07:32:39Z
2022-11-01T05:33:45Z,42.805,6.029,13.3075,4.60112,2470.661,2022-11-01T07:35:42Z
2022-11-01T05:36:48Z,42.805,6.029,13.3064,4.60092,2470.614,2022-11-01T07:38:45Z
2022-11-01T05:39:51Z,42.805,6.029,13.3068,4.60092,2470.614,2022-11-01T07:41:48Z
2022-11-01T05:42:54Z,42.805,6.029,13.3076,4.60104,2470.637,2022-11-01T07:44:51Z
2022-11-01T05:45:57Z,42.805,6.029,13.3075,4.60095,2470.624,2022-11-01T07:47:54Z
2022-11-01T05:49:00Z,42.805,6.029,13.3063,4.60099,2470.6,2022-11-01T07:50:57Z
2022-11-01T05:52:03Z,42.805,6.029,13.3075,4.60093,2470.614,2022-11-01T07:54:00Z
2022-11-01T05:55:06Z,42.805,6.029,13.3083,4.60093,2470.637,2022-11-01T07:57:03Z
2022-11-01T05:58:09Z,42.805,6.029,13.3079,4.60101,2470.614,2022-11-01T08:00:06Z
2022-11-01T06:01:12Z,42.805,6.029,13.3079,4.60092,2470.624,2022-11-01T08:03:09Z
2022-11-01T06:04:15Z,42.805,6.029,13.3070,4.60089,2470.637,2022-11-01T08:06:12Z
2022-11-01T06:07:19Z,42.805,6.029,13.3066,4.60087,2470.646,2022-11-01T08:09:15Z
2022-11-01T06:10:22Z,42.805,6.029,13.3061,4.60092,2470.637,2022-11-01T08:12:18Z
2022-11-01T06:13:25Z,42.805,6.029,13.3060,4.60104,2470.6,2022-11-01T08:15:22Z
2022-11-01T06:16:28Z,42.805,6.029,13.3063,4.60091,2470.624,2022-11-01T08:18:25Z
2022-11-01T06:19:31Z,42.805,6.029,13.3052,4.60093,2470.637,2022-11-01T08:21:28Z
2022-11-01T06:22:34Z,42.805,6.029,13.3049,4.60084,2470.637,2022-11-01T08:24:31Z
2022-11-01T06:25:37Z,42.805,6.029,13.3056,4.60089,2470.614,2022-11-01T08:27:34Z
2022-11-01T06:28:40Z,42.805,6.029,13.3061,4.60092,2470.614,2022-11-01T08:30:37Z
2022-11-01T06:31:43Z,42.805,6.029,13.3065,4.60089,2470.624,2022-11-01T08:33:40Z
2022-11-01T06:34:46Z,42.805,6.029,13.3059,4.60090,2470.624,2022-11-01T08:36:43Z
2022-11-01T06:37:49Z,42.805,6.029,13.3051,4.60095,2470.637,2022-11-01T08:39:46Z
2022-11-01T06:40:52Z,42.805,6.029,13.3054,4.60093,2470.6,2022-11-01T08:42:49Z
2022-11-01T06:43:55Z,42.805,6.029,13.3056,4.60084,2470.646,2022-11-01T08:45:52Z
2022-11-01T06:46:58Z,42.805,6.029,13.3057,4.60092,2470.6,2022-11-01T08:48:55Z
2022-11-01T06:50:02Z,42.805,6.029,13.3051,4.60097,2470.637,2022-11-01T08:51:58Z
2022-11-01T06:53:05Z,42.805,6.029,13.3050,4.60102,2470.637,2022-11-01T08:55:02Z
2022-11-01T06:56:08Z,42.805,6.029,13.3060,4.60084,2470.624,2022-11-01T08:58:05Z
2022-11-01T06:59:11Z,42.805,6.029,13.3058,4.60091,2470.6,2022-11-01T09:01:08Z
2022-11-01T07:02:14Z,42.805,6.029,13.3064,4.60086,2470.624,2022-11-01T09:04:11Z
2022-11-01T07:05:17Z,42.805,6.029,13.3055,4.60091,2470.637,2022-11-01T09:07:14Z
2022-11-01T07:08:20Z,42.805,6.029,13.3051,4.60096,2470.646,2022-11-01T09:10:17Z
2022-11-01T07:11:23Z,42.805,6.029,13.3058,4.60091,2470.637,2022-11-01T09:13:20Z
2022-11-01T07:14:26Z,42.805,6.029,13.3062,4.60099,2470.637,2022-11-01T09:16:23Z
2022-11-01T07:17:29Z,42.805,6.029,13.3066,4.60096,2470.624,2022-11-01T09:19:26Z
2022-11-01T07:20:32Z,42.805,6.029,13.3065,4.60092,2470.646,2022-11-01T09:22:29Z
2022-11-01T07:23:35Z,42.805,6.029,13.3054,4.60094,2470.624,2022-11-01T09:25:32Z
2022-11-01T07:26:38Z,42.805,6.029,13.3061,4.60085,2470.646,2022-11-01T09:28:35Z
2022-11-01T07:29:42Z,42.805,6.029,13.3051,4.60087,2470.637,2022-11-01T09:31:38Z
2022-11-01T07:32:45Z,42.805,6.029,13.3048,4.60097,2470.624,2022-11-01T09:34:42Z
2022-11-01T07:35:48Z,42.805,6.029,13.3050,4.60096,2470.637,2022-11-01T09:37:45Z
2022-11-01T07:38:51Z,42.805,6.029,13.3061,4.60094,2470.646,2022-11-01T09:40:48Z
2022-11-01T07:41:54Z,42.805,6.029,13.3055,4.60092,2470.624,2022-11-01T09:43:51Z
2022-11-01T07:44:57Z,42.805,6.029,13.3058,4.60092,2470.661,2022-11-01T09:46:54Z
2022-11-01T07:48:00Z,42.805,6.029,13.3058,4.60089,2470.624,2022-11-01T09:49:57Z
2022-11-01T07:51:03Z,42.805,6.029,13.3062,4.60108,2470.661,2022-11-01T09:53:00Z
2022-11-01T07:54:06Z,42.805,6.029,13.3054,4.60103,2470.684,2022-11-01T09:56:03Z
2022-11-01T07:57:09Z,42.805,6.029,13.3051,4.60090,2470.637,2022-11-01T09:59:06Z
2022-11-01T08:00:12Z,42.805,6.029,13.3053,4.60097,2470.646,2022-11-01T10:02:09Z
2022-11-01T08:03:15Z,42.805,6.029,13.3069,4.60089,2470.637,2022-11-01T10:05:12Z
2022-11-01T08:06:18Z,42.805,6.029,13.3059,4.60081,2470.637,2022-11-01T10:08:15Z
2022-11-01T08:09:21Z,42.805,6.029,13.3071,4.60102,2470.61,2022-11-01T10:11:18Z
2022-11-01T08:12:25Z,42.805,6.029,13.3053,4.60087,2470.707,2022-11-01T10:14:21Z
2022-11-01T08:15:28Z,42.805,6.029,13.3078,4.60094,2470.646,2022-11-01T10:17:24Z
2022-11-01T08:18:31Z,42.805,6.029,13.3063,4.60093,2470.661,2022-11-01T10:20:28Z
2022-11-01T08:21:34Z,42.805,6.029,13.3046,4.60092,2470.707,2022-11-01T10:23:31Z
2022-11-01T08:24:37Z,42.805,6.029,13.3048,4.60094,2470.646,2022-11-01T10:26:34Z
2022-11-01T08:27:40Z,42.805,6.029,13.3052,4.60081,2470.661,2022-11-01T10:29:37Z
2022-11-01T08:30:43Z,42.805,6.029,13.3050,4.60078,2470.646,2022-11-01T10:32:40Z
2022-11-01T08:33:46Z,42.805,6.029,13.3051,4.60094,2470.693,2022-11-01T10:35:43Z
2022-11-01T08:36:49Z,42.805,6.029,13.3056,4.60107,2470.67,2022-11-01T10:38:46Z
2022-11-01T08:39:52Z,42.805,6.029,13.3040,4.60084,2470.624,2022-11-01T10:41:49Z
2022-11-01T08:42:55Z,42.805,6.029,13.3052,4.60088,2470.646,2022-11-01T10:44:52Z
2022-11-01T08:45:58Z,42.805,6.029,13.3051,4.60084,2470.67,2022-11-01T10:47:55Z
2022-11-01T08:49:01Z,42.805,6.029,13.3104,4.60082,2470.67,2022-11-01T10:50:58Z
2022-11-01T08:52:05Z,42.805,6.029,13.3050,4.60083,2470.717,2022-11-01T10:54:01Z
2022-11-01T08:55:08Z,42.805,6.029,13.3043,4.60096,2470.684,2022-11-01T10:57:05Z
2022-11-01T08:58:11Z,42.805,6.029,13.3040,4.60096,2470.693,2022-11-01T11:00:08Z
2022-11-01T09:01:14Z,42.805,6.029,13.3057,4.60102,2470.693,2022-11-01T11:03:11Z
2022-11-01T09:04:17Z,42.805,6.029,13.3046,4.60105,2470.646,2022-11-01T11:06:14Z
2022-11-01T09:07:20Z,42.805,6.029,13.3078,4.60097,2470.67,2022-11-01T11:09:17Z
2022-11-01T09:10:23Z,42.805,6.029,13.3058,4.60105,2470.717,2022-11-01T11:12:20Z
2022-11-01T09:13:26Z,42.805,6.029,13.3053,4.60097,2470.693,2022-11-01T11:15:23Z
2022-11-01T09:16:29Z,42.805,6.029,13.3044,4.60102,2470.693,2022-11-01T11:18:26Z
2022-11-01T09:19:32Z,42.805,6.029,13.3071,4.60102,2470.73,2022-11-01T11:21:29Z
2022-11-01T09:22:35Z,42.805,6.029,13.3041,4.60093,2470.707,2022-11-01T11:24:32Z
2022-11-01T09:25:38Z,42.805,6.029,13.3039,4.60091,2470.74,2022-11-01T11:27:35Z
2022-11-01T09:28:41Z,42.805,6.029,13.3046,4.60084,2470.74,2022-11-01T11:30:38Z
2022-11-01T09:31:45Z,42.805,6.029,13.3074,4.60104,2470.679,2022-11-01T11:33:41Z
2022-11-01T09:34:48Z,42.805,6.029,13.3045,4.60094,2470.684,2022-11-01T11:36:45Z
2022-11-01T09:37:51Z,42.805,6.029,13.3047,4.60098,2470.717,2022-11-01T11:39:48Z
2022-11-01T09:40:54Z,42.805,6.029,13.3056,4.60104,2470.73,2022-11-01T11:42:51Z
2022-11-01T09:43:57Z,42.805,6.029,13.3041,4.60085,2470.74,2022-11-01T11:45:54Z
2022-11-01T09:47:00Z,42.805,6.029,13.3039,4.60094,2470.74,2022-11-01T11:48:57Z
2022-11-01T09:50:03Z,42.805,6.029,13.3048,4.60142,2470.707,2022-11-01T11:52:00Z
2022-11-01T09:53:06Z,42.805,6.029,13.3044,4.60081,2470.73,2022-11-01T11:55:03Z
2022-11-01T09:56:09Z,42.805,6.029,13.3048,4.60092,2470.754,2022-11-01T11:58:06Z
2022-11-01T09:59:12Z,42.805,6.029,13.3037,4.60081,2470.703,2022-11-01T12:01:09Z
2022-11-01T10:02:15Z,42.805,6.029,13.3042,4.60094,2470.717,2022-11-01T12:04:12Z
2022-11-01T10:05:18Z,42.805,6.029,13.3051,4.60101,2470.73,2022-11-01T12:07:15Z
2022-11-01T10:08:21Z,42.805,6.029,13.3043,4.60099,2470.74,2022-11-01T12:10:18Z
2022-11-01T10:11:25Z,42.805,6.029,13.3045,4.60087,2470.717,2022-11-01T12:13:21Z
2022-11-01T10:14:28Z,42.805,6.029,13.3034,4.60104,2470.74,2022-11-01T12:16:25Z
2022-11-01T10:17:31Z,42.805,6.029,13.3071,4.60092,2470.73,2022-11-01T12:19:28Z
2022-11-01T10:20:34Z,42.805,6.029,13.3014,4.60081,2470.763,2022-11-01T12:22:31Z
2022-11-01T10:23:37Z,42.805,6.029,13.3017,4.60078,2470.74,2022-11-01T12:25:34Z
2022-11-01T10:26:40Z,42.805,6.029,13.3041,4.60077,2470.8,2022-11-01T12:28:37Z
2022-11-01T10:29:43Z,42.805,6.029,13.3012,4.60075,2470.754,2022-11-01T12:31:40Z
2022-11-01T10:32:46Z,42.805,6.029,13.3048,4.60089,2470.74,2022-11-01T12:34:43Z
2022-11-01T10:35:49Z,42.805,6.029,13.3029,4.60091,2470.74,2022-11-01T12:37:46Z
2022-11-01T10:38:52Z,42.805,6.029,13.3025,4.60076,2470.763,2022-11-01T12:40:49Z
2022-11-01T10:41:55Z,42.805,6.029,13.3012,4.60079,2470.777,2022-11-01T12:43:52Z
2022-11-01T10:44:58Z,42.805,6.029,13.3023,4.60071,2470.763,2022-11-01T12:46:55Z
2022-11-01T10:48:01Z,42.805,6.029,13.3046,4.60081,2470.74,2022-11-01T12:49:58Z
2022-11-01T10:51:05Z,42.805,6.029,13.3014,4.60077,2470.763,2022-11-01T12:53:01Z
2022-11-01T10:54:08Z,42.805,6.029,13.3041,4.60076,2470.777,2022-11-01T12:56:05Z
2022-11-01T10:57:11Z,42.805,6.029,13.3041,4.60084,2470.763,2022-11-01T12:59:08Z
2022-11-01T11:00:14Z,42.805,6.029,13.3029,4.60088,2470.777,2022-11-01T13:02:11Z
2022-11-01T11:03:17Z,42.805,6.029,13.3025,4.60090,2470.787,2022-11-01T13:05:14Z
2022-11-01T11:06:20Z,42.805,6.029,13.3029,4.60082,2470.754,2022-11-01T13:08:17Z
2022-11-01T11:09:23Z,42.805,6.029,13.3015,4.60082,2470.777,2022-11-01T13:11:20Z
2022-11-01T11:12:26Z,42.805,6.029,13.3036,4.60087,2470.777,2022-11-01T13:14:23Z
2022-11-01T11:15:29Z,42.805,6.029,13.3032,4.60089,2470.787,2022-11-01T13:17:26Z
2022-11-01T11:18:32Z,42.805,6.029,13.3032,4.60069,2470.8,2022-11-01T13:20:29Z
2022-11-01T11:21:35Z,42.805,6.029,13.3039,4.60087,2470.8,2022-11-01T13:23:32Z
2022-11-01T11:24:38Z,42.805,6.029,13.3026,4.60091,2470.787,2022-11-01T13:26:35Z
2022-11-01T11:27:41Z,42.805,6.029,13.3028,4.60089,2470.763,2022-11-01T13:29:38Z
2022-11-01T11:30:45Z,42.805,6.029,13.3019,4.60081,2470.763,2022-11-01T13:32:41Z
2022-11-01T11:33:48Z,42.805,6.029,13.3028,4.60084,2470.74,2022-11-01T13:35:45Z
2022-11-01T11:36:51Z,42.805,6.029,13.3022,4.60073,2470.763,2022-11-01T13:38:48Z
2022-11-01T11:39:54Z,42.805,6.029,13.3016,4.60082,2470.787,2022-11-01T13:41:51Z
2022-11-01T11:42:57Z,42.805,6.029,13.3018,4.60079,2470.787,2022-11-01T13:44:54Z
2022-11-01T11:46:00Z,42.805,6.029,13.3019,4.60070,2470.763,2022-11-01T13:47:57Z
2022-11-01T11:49:03Z,42.805,6.029,13.3019,4.60089,2470.777,2022-11-01T13:51:00Z
2022-11-01T11:52:06Z,42.805,6.029,13.3018,4.60080,2470.824,2022-11-01T13:54:03Z
2022-11-01T11:55:09Z,42.805,6.029,13.3014,4.60074,2470.787,2022-11-01T13:57:06Z
2022-11-01T11:58:12Z,42.805,6.029,13.3012,4.60069,2470.763,2022-11-01T14:00:09Z
2022-11-01T12:01:15Z,42.805,6.029,13.3016,4.60072,2470.824,2022-11-01T14:03:12Z
2022-11-01T12:04:18Z,42.805,6.029,13.3014,4.60070,2470.777,2022-11-01T14:06:15Z
2022-11-01T12:07:21Z,42.805,6.029,13.3017,4.60075,2470.787,2022-11-01T14:09:18Z
2022-11-01T12:10:25Z,42.805,6.029,13.3013,4.60064,2470.81,2022-11-01T14:12:21Z
2022-11-01T12:13:28Z,42.805,6.029,13.3020,4.60074,2470.763,2022-11-01T14:15:25Z
2022-11-01T12:16:31Z,42.805,6.029,13.3013,4.60091,2470.763,2022-11-01T14:18:28Z
2022-11-01T12:19:34Z,42.805,6.029,13.3013,4.60067,2470.81,2022-11-01T14:21:31Z
2022-11-01T12:22:37Z,42.805,6.029,13.3011,4.60065,2470.763,2022-11-01T14:24:34Z
2022-11-01T12:25:40Z,42.805,6.029,13.3011,4.60062,2470.824,2022-11-01T14:27:37Z
2022-11-01T12:28:43Z,42.805,6.029,13.3009,4.60062,2470.824,2022-11-01T14:30:40Z
2022-11-01T12:31:46Z,42.805,6.029,13.3010,4.60064,2470.787,2022-11-01T14:33:43Z
2022-11-01T12:34:49Z,42.805,6.029,13.3014,4.60070,2470.763,2022-11-01T14:36:46Z
2022-11-01T12:37:52Z,42.805,6.029,13.3011,4.60069,2470.74,2022-11-01T14:39:49Z
2022-11-01T12:40:55Z,42.805,6.029,13.3014,4.60062,2470.8,2022-11-01T14:42:52Z
2022-11-01T12:43:58Z,42.805,6.029,13.3007,4.60062,2470.787,2022-11-01T14:45:55Z
2022-11-01T12:47:01Z,42.805,6.029,13.3014,4.60062,2470.777,2022-11-01T14:48:58Z
2022-11-01T12:50:05Z,42.805,6.029,13.3012,4.60062,2470.787,2022-11-01T14:52:02Z
2022-11-01T12:53:08Z,42.805,6.029,13.3010,4.60062,2470.787,2022-11-01T14:55:05Z
2022-11-01T12:56:11Z,42.805,6.029,13.3015,4.60062,2470.8,2022-11-01T14:58:08Z
2022-11-01T12:59:14Z,42.805,6.029,13.3013,4.60059,2470.81,2022-11-01T15:01:11Z
2022-11-01T13:02:17Z,42.805,6.029,13.3013,4.60067,2470.8,2022-11-01T15:04:14Z
2022-11-01T13:05:20Z,42.805,6.029,13.3011,4.60067,2470.81,2022-11-01T15:07:17Z
2022-11-01T13:08:23Z,42.805,6.029,13.3015,4.60067,2470.787,2022-11-01T15:10:20Z
2022-11-01T13:11:26Z,42.805,6.029,13.3012,4.60067,2470.787,2022-11-01T15:13:23Z
2022-11-01T13:14:29Z,42.805,6.029,13.3013,4.60059,2470.796,2022-11-01T15:16:26Z
2022-11-01T13:17:32Z,42.805,6.029,13.3010,4.60062,2470.787,2022-11-01T15:19:29Z
2022-11-01T13:20:35Z,42.805,6.029,13.3011,4.60063,2470.81,2022-11-01T15:22:32Z
2022-11-01T13:23:38Z,42.805,6.029,13.3018,4.60070,2470.81,2022-11-01T15:25:35Z
2022-11-01T13:26:41Z,42.805,6.029,13.3016,4.60073,2470.787,2022-11-01T15:28:38Z
2022-11-01T13:29:45Z,42.805,6.029,13.3011,4.60065,2470.787,2022-11-01T15:31:41Z
2022-11-01T13:32:48Z,42.805,6.029,13.3013,4.60062,2470.763,2022-11-01T15:34:45Z
2022-11-01T13:35:51Z,42.805,6.029,13.3010,4.60060,2470.824,2022-11-01T15:37:48Z
2022-11-01T13:38:54Z,42.805,6.029,13.3008,4.60058,2470.81,2022-11-01T15:40:51Z
2022-11-01T13:41:57Z,42.805,6.029,13.3013,4.60060,2470.787,2022-11-01T15:43:54Z
2022-11-01T13:45:00Z,42.805,6.029,13.3011,4.60063,2470.787,2022-11-01T15:46:57Z
2022-11-01T13:48:03Z,42.805,6.029,13.3009,4.60063,2470.787,2022-11-01T15:50:00Z
2022-11-01T13:51:06Z,42.805,6.029,13.3014,4.60062,2470.824,2022-11-01T15:53:03Z
2022-11-01T13:54:09Z,42.805,6.029,13.3008,4.60059,2470.81,2022-11-01T15:56:06Z
2022-11-01T13:57:12Z,42.805,6.029,13.3016,4.60060,2470.81,2022-11-01T15:59:09Z
2022-11-01T14:00:15Z,42.805,6.029,13.3015,4.60057,2470.8,2022-11-01T16:02:12Z
2022-11-01T14:03:18Z,42.805,6.029,13.3017,4.60059,2470.787,2022-11-01T16:05:15Z
2022-11-01T14:06:21Z,42.805,6.029,13.3014,4.60058,2470.824,2022-11-01T16:08:18Z
2022-11-01T14:09:25Z,42.805,6.029,13.3009,4.60059,2470.787,2022-11-01T16:11:21Z
2022-11-01T14:12:28Z,42.805,6.029,13.3014,4.60059,2470.833,2022-11-01T16:14:25Z
2022-11-01T14:15:31Z,42.805,6.029,13.3017,4.60060,2470.787,2022-11-01T16:17:28Z
2022-11-01T14:18:34Z,42.805,6.029,13.3014,4.60058,2470.824,2022-11-01T16:20:31Z
2022-11-01T14:21:37Z,42.805,6.029,13.3009,4.60057,2470.787,2022-11-01T16:23:34Z
2022-11-01T14:24:40Z,42.805,6.029,13.3012,4.60057,2470.81,2022-11-01T16:26:37Z
2022-11-01T14:27:43Z,42.805,6.029,13.3012,4.60058,2470.824,2022-11-01T16:29:40Z
2022-11-01T14:30:46Z,42.805,6.029,13.3014,4.60058,2470.787,2022-11-01T16:32:43Z
2022-11-01T14:33:49Z,42.805,6.029,13.3011,4.60061,2470.74,2022-11-01T16:35:46Z
2022-11-01T14:36:52Z,42.805,6.029,13.3015,4.60059,2470.824,2022-11-01T16:38:49Z
2022-11-01T14:39:55Z,42.805,6.029,13.3010,4.60059,2470.787,2022-11-01T16:41:52Z
2022-11-01T14:42:58Z,42.805,6.029,13.3013,4.60060,2470.81,2022-11-01T16:44:55Z
2022-11-01T14:46:02Z,42.805,6.029,13.3013,4.60057,2470.787,2022-11-01T16:47:58Z
2022-11-01T14:49:05Z,42.805,6.029,13.3014,4.60057,2470.763,2022-11-01T16:51:02Z
2022-11-01T14:52:08Z,42.805,6.029,13.3015,4.60058,2470.787,2022-11-01T16:54:05Z
2022-11-01T14:55:11Z,42.805,6.029,13.3011,4.60058,2470.763,2022-11-01T16:57:08Z
2022-11-01T14:58:14Z,42.805,6.029,13.3011,4.60058,2470.81,2022-11-01T17:00:11Z
2022-11-01T15:01:17Z,42.805,6.029,13.3009,4.60061,2470.787,2022-11-01T17:03:14Z